Regional Weather Roundup
Issued by NWS

Home | Current Version | Previous Version | Graphics & Text | Print | Product List | Glossary On
Versions: 1 2 3 4 5 6 7 8 9 10 11 12 13 14 15 16 17 18 19 20 21 22 23 24 25 26 27 28 29 30 31 32 33 34 35 36 37 38 39 40 41 42 43 44 45 46 47 48 49 50
000
ASUS43 KMKX 220811
RWRWI

WISCONSIN REGIONAL WEATHER ROUNDUP
NATIONAL WEATHER SERVICE MILWAUKEE/SULLIVAN WI
200 AM CST MON DEC 22 2014

NOTE: "FAIR" INDICATES FEW OR NO CLOUDS BELOW 12,000 FEET WITH NO
SIGNIFICANT WEATHER AND/OR OBSTRUCTIONS TO VISIBILITY.

WIZ001-002-006>008-014>016-023>028-220900-
NORTHWEST WISCONSIN

CITY           SKY/WX    TMP DP  RH WIND       PRES   REMARKS
SUPERIOR ARPT  LGT RAIN  35  34  96 CALM      29.74S
ASHLAND        CLOUDY    36  33  89 S5        29.77F WCI  32
HAYWARD        LGT SNOW  34  31  88 S7        29.75F FOG     WCI  28
SIREN          CLOUDY    34  33  97 SE8       29.73S WCI  27
CUMBERLAND     LGT SNOW  32  32 100 SE7       29.74S WCI  26
RICE LAKE      MIX PCPN  34  33  96 SE8       29.77S WCI  27
CHETEK         LGT RAIN  34  33  97 SE9       29.77S WCI  27
LADYSMITH      DRIZZLE   35  34  96 SE8       29.80S WCI  28
EAU CLAIRE     CLOUDY    36  33  89 S14       29.78F WCI  27
MENOMONIE      LGT RAIN  36  35  96 SE9       29.77F WCI  29
NEW RICHMOND   CLOUDY    37  37 100 S12       29.72F WCI  29
OSCEOLA        RAIN      37  37 100 SE9       29.74F WCI  31
$$

WIZ003>005-009-010-017-018-220900-
NORTH CENTRAL WISCONSIN

CITY           SKY/WX    TMP DP  RH WIND       PRES   REMARKS
MANITOWISH WTR LGT SNOW  32  32 100 S10G16    29.79S WCI  24
ARBOR VITAE    CLOUDY    34  32  94 S14       29.81S FOG     WCI  25
WOODRUFF       CLOUDY    34  32  94 S14       29.81S FOG     WCI  25
RHINELANDER    CLOUDY    32  31  96 S8        29.83F FOG     WCI  25
EAGLE RIVER    CLOUDY    32  32 100 S9        29.82S FOG     WCI  24
LAND O LAKES   CLOUDY    33  32  96 S10       29.83S WCI  25
PHILLIPS       CLOUDY    33  32  98 S14       29.79S FOG     WCI  23
TOMAHAWK       CLOUDY    32  31  98 S3        29.83F FOG
MEDFORD        LGT SNOW  32  32  99 SE12      29.82S WCI  23
MERRILL        CLOUDY    33  33 100 S7        29.86R FOG     WCI  27
$$

WIZ029-030-035-036-043>047-220900-
CENTRAL WISCONSIN

CITY           SKY/WX    TMP DP  RH WIND       PRES   REMARKS
WAUSAU         LGT SNOW  33  31  92 SE10      29.86S FOG     WCI  25
MOSINEE        LGT SNOW  32  32 100 SE10      29.87S WCI  24
MARSHFIELD     LGT SNOW  34  32  92 S10       29.84S FOG     WCI  26
STEVENS POINT  DRIZZLE   32  30  92 S8        29.88S WCI  25
WAUPACA        CLOUDY    36  31  81 SE8       29.92S WCI  30
WAUTOMA        CLOUDY    35  32  89 S9        29.92S WCI  28
WISC RAPIDS    CLOUDY    35  30  82 S8        29.88F WCI  29
CAMP DOUGLAS   CLOUDY    35  35 100 SE9       29.86S WCI  27
$$

WIZ011>013-019>022-031-037>040-048>050-220900-
NORTHEAST WISCONSIN

CITY           SKY/WX    TMP DP  RH WIND       PRES   REMARKS
ANTIGO         LGT SNOW  31  31  99 S10       29.87S WCI  22
SHAWANO        CLOUDY    37  31  81 S8        29.93F WCI  30
OCONTO         CLOUDY    35  32  87 S7        29.96R WCI  29
STURGEON BAY   CLOUDY    36  30  80 S14       29.98S WCI  27
GREEN BAY      CLOUDY    35  31  85 S10       29.95S WCI  27
MANITOWOC      CLOUDY    37  33  85 S14       29.98S WCI  28
APPLETON       CLOUDY    34  30  86 S10       29.94R WCI  26
CLINTONVILLE   CLOUDY    34  30  86 S10       29.92S WCI  26
OSHKOSH        CLOUDY    35  29  78 S13       29.93F WCI  26
$$

WIZ032>034-041-042-053>061-220900-
SOUTHWEST WISCONSIN

CITY           SKY/WX    TMP DP  RH WIND       PRES   REMARKS
LA CROSSE      CLOUDY    38  33  82 S13       29.83S WCI  30
SPARTA         CLOUDY    36  32  87 S10G17    29.85S WCI  28
VIROQUA        CLOUDY    33  33 100 S13G18    29.83S WCI  24
BOSCOBEL       CLOUDY    37  31  78 VRB6      29.87F WCI  32
PRAIRIE DU CHI CLOUDY    36  31  82 SE8       29.85S WCI  30
PLATTEVILLE    CLOUDY    35  32  90 SE7       29.87S WCI  29
$$

WIZ056-057-062-063-064-067-068-220900-
SOUTH CENTRAL WISCONSIN

CITY           SKY/WX    TMP DP  RH WIND       PRES   REMARKS
REEDSBURG      CLOUDY    34  31  88 S9        29.88S WCI  27
BARABOO/DELLS  CLOUDY    34  30  85 S8        29.89S WCI  27
LONE ROCK      CLOUDY    39  30  70 SE8       29.89F WCI  33
MINERAL POINT  CLOUDY    34  32  93 SE9       29.87S FOG     WCI  26
MADISON        CLOUDY    35  29  78 S14       29.91S WCI  26
MIDDLETON      CLOUDY    36  31  82 S10G16    29.91S WCI  28
WATERTOWN      CLOUDY    33  31  91 SE8       29.93F WCI  26
MONROE         CLOUDY    32  32 100 SE15      29.90S WCI  22
JANESVILLE     CLOUDY    36  30  80 S12G18    29.93S WCI  27
$$

WIZ051-052-058>065-066-070>072-220900-
SOUTHEAST WISCONSIN

CITY           SKY/WX    TMP DP  RH WIND       PRES   REMARKS
MILWAUKEE      CLOUDY    34  28  79 S8        29.98F WCI  27
WAUKESHA       CLOUDY    32  28  86 SE9       29.97S WCI  24
MILWAUKEE/TIMM CLOUDY    34  28  80 S10       29.98S WCI  26
RACINE         CLOUDY    34  29  82 S12       30.00S WCI  25
BURLINGTON     CLOUDY    32  28  84 S9        29.97S WCI  24
KENOSHA        CLOUDY    33  28  81 S9        29.98S HAZE    WCI  25
FOND DU LAC    CLOUDY    35  29  78 S13       29.94F WCI  26
SHEBOYGAN      CLOUDY    35  30  82 S10G18    29.97F WCI  27
WEST BEND      CLOUDY    34  28  80 SE7       29.96F WCI  28
JUNEAU         CLOUDY    33  30  88 SE12      29.94F WCI  24
$$

LSZ147-162-220900-
LAKE SUPERIOR

STATION/POSITION TIME  TEMP    WIND        PRES    WAVE
                       AIR SEA DIR/SP/G            HT/PER
                 (UTC) (F)     (DEG/KT/KT) (MB)    (FT/S)
DEVILS ISLAND    0800   36     150/  7/ 10 1008.9F
PORT WING        0700   37     160/  3/  5 1008.1
SAXON HARBOR     0700   38     180/  3/  7 1008.5S
$$

LMZ867-665-643>646-220900-
LAKE MICHIGAN

STATION/POSITION TIME  TEMP    WIND        PRES    WAVE
                       AIR SEA DIR/SP/G            HT/PER
                 (UTC) (F)     (DEG/KT/KT) (MB)    (FT/S)
CHAMBERS ISLAND  0700   37     170/  6/ 13 1014.9S
NORTHPORT PIER   0700   36     150/ 14/ 21 1014.9F
SISTER BAY       0713          170/ 16/ 23   N/A
ALGOMA LAKESHORE 0715          220/ 24/ 28   N/A
KEWAUNEE LAKESHO 0700   36     190/ 13/ 16 1014.4F
SHEBOYGAN LAKESH 0800   37 36  180/ 19/ 21 1015.7S
PORT WASHINGTON  0700   37     180/ 15/ 18 1016.3F
MILWAUKEE LAKESH 0700   36     160/ 12/ 14   N/A
KENOSHA   LAKESH 0800   35     170/ 20/ 22 1015.2S
$$

TC  - TEMPERATURE IN CELSIUS
VSB - VISIBILITY IN STATUTE MILES
WCI - WIND CHILL INDEX
HX  - HEAT INDEX




USA.gov is the U.S. government's official web portal to all federal, state and local government web resources and services.